MAST

Satellite information

Favourite Embed

Satellite Type and Status

PAYLOADIN ORBIT

Key statistics

Satellite MAST at a glance.

Uptime

6596

Days in orbit

Revolutions

≈ 14.6

Per day

Orbit

SSO

Sun Synchronous Orbit

Inclination

98.4

Latest

Satellite identification and parameters

Extended collection of information and parameters for MAST.

Object identification

Identified? True

Debris? False

Object name: MAST

International designator: 2007-012K

Object number (NORAD): 31126

Object ID (CCSDS): 31126

Country: UNITED STATES OF AMERICA (US)

Current information (Y/N): Y

RCS size: SMALL

Orbital parameters

Period: 98.524 minutes

Inclination: 98.377 deg

SMA: 7066.215 km

Apoapsis: 746.091 km

Periapsis: 630.07 km

RAAN: 83.9367 deg

Eccentricy: 0.0082095

Argument of periapsis: 229.1367 deg

Mean anomaly: 130.2699 deg

Mean motion: 14.61579508 rev/day

Mean motion (dot): 0.00001052 rev/day2

B* drag term: 0.00021231 1/REarth

Two-line elements (TLE)

Creation date: May 8, 2025, 3:01 a.m.

Reference frame: TEME

Reference center: EARTH

Epoch: May 7, 2025, 8:58 p.m. UTC

TLE line 0: 0 MAST

TLE line 1: 1 31126U 07012K 25127.87366692 .00001052 00000-0 21231-3 0 9997

TLE line 2: 2 31126 98.3770 83.9367 0082095 229.1367 130.2699 14.61579508959604

Live tracking on map

Real-time ground track for satellite MAST.

In-orbit conjunctions

A list of the most updated potential collisions computed for object MAST.

Target Orbit TCA Probability of collision Miss distance Type
FENGYUN 1C DEB SSO 2025-03-02 20:26:33 0.0001172498 491.0 (m) DEBRIS
COSMOS 2251 DEB LEO 2025-02-12 23:17:36 0.001478726 356.0 (m) DEBRIS
SL-8 DEB LEO 2025-02-05 15:28:25 0.0002429329 450.0 (m) DEBRIS
IRIDIUM 33 DEB LEO 2025-01-12 03:14:14 0.000300596 574.0 (m) DEBRIS
THOR ABLESTAR DEB LEO 2024-11-25 05:59:44 0.000155603 668.0 (m) DEBRIS

Associated space launch

Rideshare mission with Egyptian and Saudi Arabian Earth observation satellites as well as 14 American cubesats

MAST was lifted into orbit during the mission ‘Dnepr | EgyptSat 1 & Saudisat 3’, on board a Dnepr space rocket.

The launch took place on April 17, 2007, 6:46 a.m. from 109/95.

For more information about the launch, click the button.

Launch to space Dnepr | EgyptSat 1 & Saudisat 3
Dnepr | EgyptSat 1 & Saudisat 3

Agency: N/A

Status: Launch Successful

Launch date: April 17, 2007, 6:46 a.m. UTC

Rocket: Dnepr

Launch pad: 109/95

Location: Baikonur Cosmodrome, Republic of Kazakhstan

...

Latest news about this satellite

There are no fresh news available about this satellite. Check back as we update our databases every day.


Newsletter sign-up

Weekly statistics, charts and insights to help you stay on top of the space industry.